TimeCDT,TemperatureF,Dew PointF,Humidity,Sea Level PressureIn,VisibilityMPH,Wind Direction,Wind SpeedMPH,Gust SpeedMPH,PrecipitationIn,Events,Conditions,WindDirDegrees,DateUTC
12:53 AM,48.9,45.0,86,30.18,9.0,South,11.5,-,0.01,Rain,Light Rain,190,2013-04-22 05:53:00
1:53 AM,48.9,44.1,83,30.16,10.0,South,12.7,-,0.01,,Overcast,180,2013-04-22 06:53:00
2:53 AM,48.9,43.0,80,30.17,10.0,South,12.7,-,0.00,Rain,Light Rain,180,2013-04-22 07:53:00
3:53 AM,48.0,43.0,83,30.14,10.0,South,13.8,-,0.00,,Overcast,190,2013-04-22 08:53:00
4:53 AM,48.0,44.1,86,30.15,10.0,South,13.8,-,N/A,,Overcast,180,2013-04-22 09:53:00
5:53 AM,48.0,43.0,83,30.14,10.0,South,11.5,-,N/A,,Overcast,180,2013-04-22 10:53:00
6:53 AM,48.0,44.1,86,30.15,10.0,South,9.2,-,N/A,,Overcast,180,2013-04-22 11:53:00
7:53 AM,48.0,43.0,83,30.16,10.0,South,5.8,-,N/A,,Overcast,190,2013-04-22 12:53:00
8:31 AM,46.4,42.8,87,30.15,7.0,WNW,5.8,-,N/A,,Overcast,300,2013-04-22 13:31:00
8:53 AM,45.0,43.0,93,30.17,3.0,NW,6.9,-,0.00,,Overcast,320,2013-04-22 13:53:00
9:21 AM,44.6,42.8,93,30.16,2.5,NW,4.6,-,0.00,Rain,Light Rain,310,2013-04-22 14:21:00
9:53 AM,44.1,43.0,96,30.17,1.2,WNW,4.6,-,0.01,Rain,Light Rain,300,2013-04-22 14:53:00
10:33 AM,44.6,42.8,93,30.16,2.0,WNW,5.8,-,0.02,Rain,Light Rain,300,2013-04-22 15:33:00
10:53 AM,44.1,43.0,96,30.17,2.5,NW,6.9,-,0.02,,Overcast,320,2013-04-22 15:53:00
11:03 AM,44.6,42.8,93,30.16,3.0,NW,4.6,-,N/A,,Overcast,320,2013-04-22 16:03:00
11:53 AM,45.0,43.0,93,30.16,5.0,NW,5.8,-,N/A,,Overcast,320,2013-04-22 16:53:00
12:50 PM,44.6,42.8,93,30.13,8.0,NW,4.6,-,N/A,,Overcast,310,2013-04-22 17:50:00
12:53 PM,45.0,43.0,93,30.14,8.0,WNW,4.6,-,N/A,,Overcast,300,2013-04-22 17:53:00
1:53 PM,45.0,43.0,93,30.12,5.0,NNW,3.5,-,0.00,Rain,Light Rain,330,2013-04-22 18:53:00
2:05 PM,44.6,42.8,93,30.10,6.0,Calm,Calm,-,0.00,,Overcast,0,2013-04-22 19:05:00
2:19 PM,46.4,44.6,93,30.10,3.0,Calm,Calm,-,0.02,Rain,Light Rain,0,2013-04-22 19:19:00
2:53 PM,46.0,44.1,93,30.09,5.0,Calm,Calm,-,0.02,Rain,Light Rain,0,2013-04-22 19:53:00
3:53 PM,46.0,44.1,93,30.06,2.5,NW,4.6,-,0.03,Rain,Light Rain,320,2013-04-22 20:53:00
4:05 PM,46.4,44.6,93,30.04,3.0,Calm,Calm,-,0.01,Rain,Light Rain,0,2013-04-22 21:05:00
4:53 PM,51.1,46.9,86,30.01,10.0,Calm,Calm,-,0.01,,Overcast,0,2013-04-22 21:53:00
5:53 PM,48.0,46.0,93,30.00,3.0,NW,5.8,-,0.00,,Overcast,320,2013-04-22 22:53:00
6:53 PM,46.9,46.0,97,29.99,3.0,North,8.1,-,N/A,,Overcast,360,2013-04-22 23:53:00
7:23 PM,46.4,46.4,100,29.97,2.0,WNW,9.2,-,N/A,,Overcast,300,2013-04-23 00:23:00
7:26 PM,46.4,44.6,93,29.97,1.8,WNW,8.1,-,N/A,,Overcast,300,2013-04-23 00:26:00
7:40 PM,46.4,44.6,93,29.97,2.5,NW,10.4,-,N/A,,Overcast,310,2013-04-23 00:40:00
7:50 PM,46.4,44.6,93,29.96,4.0,NW,10.4,-,N/A,,Overcast,320,2013-04-23 00:50:00
7:53 PM,46.0,44.1,93,29.98,4.0,NW,11.5,-,N/A,,Overcast,310,2013-04-23 00:53:00
8:05 PM,44.6,44.6,100,29.96,5.0,NW,11.5,-,N/A,,Overcast,310,2013-04-23 01:05:00
8:27 PM,44.6,42.8,93,29.96,7.0,NW,9.2,-,N/A,,Overcast,320,2013-04-23 01:27:00
8:53 PM,45.0,43.0,93,29.99,8.0,WNW,8.1,-,N/A,,Overcast,300,2013-04-23 01:53:00
9:53 PM,44.1,42.1,93,30.00,8.0,NW,12.7,-,0.00,Rain,Light Rain,320,2013-04-23 02:53:00
10:53 PM,42.1,39.9,92,30.00,7.0,NW,10.4,-,0.04,Rain,Light Rain,320,2013-04-23 03:53:00
11:05 PM,42.8,39.2,87,29.98,7.0,NW,9.2,-,0.01,Rain,Light Rain,310,2013-04-23 04:05:00
11:32 PM,42.8,39.2,87,29.97,6.0,NW,9.2,-,0.02,Rain,Light Rain,320,2013-04-23 04:32:00
11:53 PM,41.0,39.9,96,29.98,6.0,NNW,9.2,-,0.04,Rain,Light Rain,330,2013-04-23 04:53:00